{"data":{"norad_id":64457,"intl_designator":"2025-130V","name":"STARLINK-34445","alt_names":[],"object_type":"PAYLOAD","status":"ACTIVE","operator":null,"country":"US","launch_date":"2025-06-18","launch_site_code":"AFETR","launch_vehicle":null,"mission":null,"orbit_class":"UNKNOWN","rcs_meters":null,"size_class":null,"mass_kg":null,"dimensions":null,"purposes":["comms"],"wikipedia_slug":null,"has_3d_model":false,"image_url":null,"decayed_at":null,"tle_current":{"epoch":"2026-09-20T14:22:24.464064Z","epoch_age_seconds":123139,"freshness":"FRESH","line1":"1 64457U 25130V   26263.59889426  .00017484  00000+0  52728-3 0  9997","line2":"2 64457  53.1591 259.0095 0000771  83.4835 276.6255 15.34405668 70606","mean_motion":15.34405668,"eccentricity":7.71e-5,"inclination_deg":53.1591,"raan_deg":259.0095,"arg_perigee_deg":83.4835,"mean_anomaly_deg":276.6255,"bstar":0.00052728,"rev_number":7060,"period_min":93.847411413499,"perigee_km":462.15896628483,"apogee_km":463.21382125215,"semimajor_km":6840.8233937685,"source":"CELESTRAK","updated_at":"2026-09-21T09:00:35.356023Z"}}}